Time,TemperatureF,DewpointF,PressureIn,WindDirection,WindDirectionDegrees,WindSpeedMPH,WindSpeedGustMPH,Humidity,HourlyPrecipIn,Conditions,Clouds,dailyrainin,SoftwareType,DateUTC
2013-08-13 00:00:00,71.1,64.6,29.98,North,360,0.0,0.0,80,0.00,,---,0.61,VWS V14.01,2013-08-13 05:00:00,
2013-08-13 00:01:00,70.8,65.7,29.97,North,360,0.0,0.0,84,0.00,,---,0.00,VWS V14.01,2013-08-13 05:01:00,
2013-08-13 00:06:00,71.1,66.4,29.97,North,360,0.0,0.0,85,0.00,,---,0.00,VWS V14.01,2013-08-13 05:06:00,
2013-08-13 00:11:00,71.1,66.4,29.97,North,360,0.0,0.0,85,0.00,,---,0.00,VWS V14.01,2013-08-13 05:11:00,
2013-08-13 00:16:00,71.3,66.6,29.98,North,360,0.0,0.0,85,0.00,,---,0.00,VWS V14.01,2013-08-13 05:16:00,
2013-08-13 00:21:00,71.3,66.9,29.98,North,360,0.0,0.0,86,0.00,,---,0.00,VWS V14.01,2013-08-13 05:21:00,
2013-08-13 00:26:00,71.3,66.9,29.98,North,360,0.0,0.0,86,0.00,,---,0.00,VWS V14.01,2013-08-13 05:26:00,
2013-08-13 00:30:00,70.9,65.1,29.99,North,360,0.0,0.0,82,0.00,,---,0.61,VWS V14.01,2013-08-13 05:30:00,
2013-08-13 00:31:00,71.3,66.9,29.99,North,360,0.0,0.0,86,0.00,,---,0.00,VWS V14.01,2013-08-13 05:31:00,
2013-08-13 00:36:00,71.1,66.7,29.99,North,360,0.0,0.0,86,0.00,,---,0.00,VWS V14.01,2013-08-13 05:36:00,
2013-08-13 00:41:00,70.9,66.5,29.99,North,360,2.0,2.0,86,0.00,,---,0.00,VWS V14.01,2013-08-13 05:41:00,
2013-08-13 00:46:00,71.1,67.0,29.98,North,360,0.0,3.0,87,0.00,,---,0.00,VWS V14.01,2013-08-13 05:46:00,
2013-08-13 00:51:00,71.3,67.2,29.98,North,360,1.0,3.0,87,0.00,,---,0.00,VWS V14.01,2013-08-13 05:51:00,
2013-08-13 00:56:00,71.5,67.4,29.98,North,360,1.0,3.0,87,0.00,,---,0.00,VWS V14.01,2013-08-13 05:56:00,
2013-08-13 01:00:00,70.8,65.7,29.97,North,360,0.0,3.0,84,0.00,,---,0.61,VWS V14.01,2013-08-13 06:00:00,
2013-08-13 01:01:00,71.5,67.4,29.97,North,5,0.0,0.0,87,0.00,,---,0.00,VWS V14.01,2013-08-13 06:01:00,
2013-08-13 01:06:00,71.6,67.5,29.97,North,5,0.0,1.0,87,0.00,,---,0.00,VWS V14.01,2013-08-13 06:06:00,
2013-08-13 01:11:00,71.6,67.5,29.97,North,5,0.0,1.0,87,0.00,,---,0.00,VWS V14.01,2013-08-13 06:11:00,
2013-08-13 01:16:00,71.5,67.4,29.97,North,5,0.0,1.0,87,0.00,,---,0.00,VWS V14.01,2013-08-13 06:16:00,
2013-08-13 01:21:00,71.5,67.4,29.97,North,5,0.0,2.0,87,0.00,,---,0.00,VWS V14.01,2013-08-13 06:21:00,
2013-08-13 01:26:00,71.5,67.4,29.97,North,5,0.0,2.0,87,0.00,,---,0.00,VWS V14.01,2013-08-13 06:26:00,
2013-08-13 01:30:00,71.3,66.9,29.99,North,360,0.0,0.0,86,0.00,,---,0.00,VWS V14.01,2013-08-13 06:30:00,
2013-08-13 01:31:00,71.3,67.2,29.97,North,5,0.0,1.0,87,0.00,,---,0.00,VWS V14.01,2013-08-13 06:31:00,
2013-08-13 01:36:00,71.3,67.2,29.97,North,5,0.0,2.0,87,0.00,,---,0.00,VWS V14.01,2013-08-13 06:36:00,
2013-08-13 01:41:00,71.3,67.2,29.97,North,5,1.0,2.0,87,0.00,,---,0.00,VWS V14.01,2013-08-13 06:41:00,
2013-08-13 01:46:00,71.3,67.2,29.97,North,5,1.0,2.0,87,0.00,,---,0.00,VWS V14.01,2013-08-13 06:46:00,
2013-08-13 01:51:00,71.1,67.0,29.97,North,5,0.0,2.0,87,0.00,,---,0.00,VWS V14.01,2013-08-13 06:51:00,
2013-08-13 01:56:00,71.1,67.0,29.97,North,5,0.0,2.0,87,0.00,,---,0.00,VWS V14.01,2013-08-13 06:56:00,
2013-08-13 02:00:00,71.5,67.4,29.97,North,5,0.0,3.0,87,0.00,,---,0.00,VWS V14.01,2013-08-13 07:00:00,
2013-08-13 02:01:00,71.1,67.0,29.97,North,5,0.0,0.0,87,0.00,,---,0.00,VWS V14.01,2013-08-13 07:01:00,
2013-08-13 02:06:00,70.9,66.8,29.97,North,5,0.0,0.0,87,0.00,,---,0.00,VWS V14.01,2013-08-13 07:06:00,
2013-08-13 02:11:00,70.9,66.8,29.97,North,5,0.0,0.0,87,0.00,,---,0.00,VWS V14.01,2013-08-13 07:11:00,
2013-08-13 02:16:00,70.8,66.7,29.97,North,5,0.0,0.0,87,0.00,,---,0.00,VWS V14.01,2013-08-13 07:16:00,
2013-08-13 02:21:00,70.4,66.3,29.97,North,5,0.0,0.0,87,0.00,,---,0.00,VWS V14.01,2013-08-13 07:21:00,
2013-08-13 02:26:00,70.3,66.6,29.97,North,5,0.0,0.0,88,0.00,,---,0.00,VWS V14.01,2013-08-13 07:26:00,
2013-08-13 02:31:00,70.3,66.6,29.97,North,5,0.0,0.0,88,0.00,,---,0.00,VWS V14.01,2013-08-13 07:31:00,
2013-08-13 02:36:00,70.1,66.4,29.97,North,5,1.0,2.0,88,0.00,,---,0.00,VWS V14.01,2013-08-13 07:36:00,
2013-08-13 02:41:00,70.1,66.4,29.97,North,5,0.0,2.0,88,0.00,,---,0.00,VWS V14.01,2013-08-13 07:41:00,
2013-08-13 02:46:00,70.3,66.6,29.97,North,5,0.0,2.0,88,0.00,,---,0.00,VWS V14.01,2013-08-13 07:46:00,
2013-08-13 02:51:00,70.3,66.6,29.97,North,5,1.0,2.0,88,0.00,,---,0.00,VWS V14.01,2013-08-13 07:51:00,
2013-08-13 02:56:00,70.4,66.7,29.97,North,5,1.0,3.0,88,0.00,,---,0.00,VWS V14.01,2013-08-13 07:56:00,
2013-08-13 03:01:00,70.4,66.7,29.97,North,5,1.0,1.0,88,0.00,,---,0.00,VWS V14.01,2013-08-13 08:01:00,
2013-08-13 03:06:00,70.4,67.0,29.97,North,5,2.0,2.0,89,0.00,,---,0.00,VWS V14.01,2013-08-13 08:06:00,
2013-08-13 03:11:00,70.4,67.0,29.97,North,5,1.0,2.0,89,0.00,,---,0.00,VWS V14.01,2013-08-13 08:11:00,
2013-08-13 03:16:00,70.4,67.0,29.97,North,5,0.0,3.0,89,0.00,,---,0.00,VWS V14.01,2013-08-13 08:16:00,
2013-08-13 03:21:00,70.3,66.9,29.97,North,5,1.0,3.0,89,0.00,,---,0.00,VWS V14.01,2013-08-13 08:21:00,
2013-08-13 03:26:00,70.3,66.9,29.97,North,5,0.0,3.0,89,0.00,,---,0.00,VWS V14.01,2013-08-13 08:26:00,
2013-08-13 03:30:00,70.3,66.6,29.97,North,5,0.0,0.0,88,0.00,,---,0.00,VWS V14.01,2013-08-13 08:30:00,
2013-08-13 03:31:00,70.3,66.9,29.98,North,5,0.0,0.0,89,0.00,,---,0.00,VWS V14.01,2013-08-13 08:31:00,
2013-08-13 03:36:00,70.1,66.7,29.98,North,5,0.0,0.0,89,0.00,,---,0.00,VWS V14.01,2013-08-13 08:36:00,
2013-08-13 03:41:00,69.9,66.5,29.98,North,5,0.0,0.0,89,0.00,,---,0.00,VWS V14.01,2013-08-13 08:41:00,
2013-08-13 03:46:00,69.9,66.5,29.98,North,5,0.0,0.0,89,0.00,,---,0.00,VWS V14.01,2013-08-13 08:46:00,
2013-08-13 03:51:00,69.6,66.2,29.98,North,5,0.0,0.0,89,0.00,,---,0.00,VWS V14.01,2013-08-13 08:51:00,
2013-08-13 03:56:00,69.3,65.9,29.98,North,5,0.0,0.0,89,0.00,,---,0.00,VWS V14.01,2013-08-13 08:56:00,
2013-08-13 04:00:00,70.4,66.7,29.97,North,5,1.0,3.0,88,0.00,,---,0.00,VWS V14.01,2013-08-13 09:00:00,
2013-08-13 04:01:00,69.1,65.7,29.98,North,5,0.0,1.0,89,0.00,,---,0.00,VWS V14.01,2013-08-13 09:01:00,
2013-08-13 04:06:00,69.1,65.7,29.98,North,5,0.0,1.0,89,0.00,,---,0.00,VWS V14.01,2013-08-13 09:06:00,
2013-08-13 04:11:00,69.1,66.1,29.98,North,5,0.0,1.0,90,0.00,,---,0.00,VWS V14.01,2013-08-13 09:11:00,
2013-08-13 04:16:00,69.1,66.1,29.97,North,5,0.0,1.0,90,0.00,,---,0.00,VWS V14.01,2013-08-13 09:16:00,
2013-08-13 04:21:00,69.1,66.1,29.97,North,5,0.0,1.0,90,0.00,,---,0.00,VWS V14.01,2013-08-13 09:21:00,
2013-08-13 04:26:00,69.1,66.1,29.97,North,5,1.0,3.0,90,0.00,,---,0.00,VWS V14.01,2013-08-13 09:26:00,
2013-08-13 04:30:00,70.3,66.9,29.98,North,5,0.0,3.0,89,0.00,,---,0.00,VWS V14.01,2013-08-13 09:30:00,
2013-08-13 04:31:00,69.1,66.1,29.98,North,5,0.0,1.0,90,0.00,,---,0.00,VWS V14.01,2013-08-13 09:31:00,
2013-08-13 04:36:00,69.1,66.1,29.98,North,5,0.0,2.0,90,0.00,,---,0.00,VWS V14.01,2013-08-13 09:36:00,
2013-08-13 04:41:00,69.3,66.2,29.98,North,5,0.0,2.0,90,0.00,,---,0.00,VWS V14.01,2013-08-13 09:41:00,
2013-08-13 04:46:00,69.1,66.1,29.98,North,5,0.0,2.0,90,0.00,,---,0.00,VWS V14.01,2013-08-13 09:46:00,
2013-08-13 04:51:00,68.9,65.8,29.98,North,5,0.0,2.0,90,0.00,,---,0.00,VWS V14.01,2013-08-13 09:51:00,
2013-08-13 04:56:00,68.8,65.8,29.98,North,5,0.0,2.0,90,0.00,,---,0.00,VWS V14.01,2013-08-13 09:56:00,
2013-08-13 05:00:00,69.1,65.7,29.98,North,5,0.0,0.0,89,0.00,,---,0.00,VWS V14.01,2013-08-13 10:00:00,
2013-08-13 05:01:00,68.6,65.6,29.98,North,5,0.0,0.0,90,0.00,,---,0.00,VWS V14.01,2013-08-13 10:01:00,
2013-08-13 05:06:00,68.6,65.6,29.98,North,5,0.0,0.0,90,0.00,,---,0.00,VWS V14.01,2013-08-13 10:06:00,
2013-08-13 05:11:00,68.4,65.4,29.98,North,5,0.0,0.0,90,0.00,,---,0.00,VWS V14.01,2013-08-13 10:11:00,
2013-08-13 05:16:00,68.3,65.6,29.98,North,5,0.0,0.0,91,0.00,,---,0.00,VWS V14.01,2013-08-13 10:16:00,
2013-08-13 05:21:00,68.1,65.4,29.98,North,5,0.0,0.0,91,0.00,,---,0.00,VWS V14.01,2013-08-13 10:21:00,
2013-08-13 05:26:00,67.9,65.2,29.98,North,5,0.0,0.0,91,0.00,,---,0.00,VWS V14.01,2013-08-13 10:26:00,
2013-08-13 05:30:00,69.1,66.1,29.98,North,5,1.0,3.0,90,0.00,,---,0.00,VWS V14.01,2013-08-13 10:30:00,
2013-08-13 05:31:00,67.9,65.2,29.98,North,5,0.0,0.0,91,0.00,,---,0.00,VWS V14.01,2013-08-13 10:31:00,
2013-08-13 05:36:00,67.8,65.1,29.98,North,5,0.0,0.0,91,0.00,,---,0.00,VWS V14.01,2013-08-13 10:36:00,
2013-08-13 05:41:00,67.8,65.1,29.98,North,5,0.0,1.0,91,0.00,,---,0.00,VWS V14.01,2013-08-13 10:41:00,
2013-08-13 05:46:00,67.8,65.1,29.98,North,5,0.0,1.0,91,0.00,,---,0.00,VWS V14.01,2013-08-13 10:46:00,
2013-08-13 05:51:00,67.9,65.2,29.98,North,5,0.0,1.0,91,0.00,,---,0.00,VWS V14.01,2013-08-13 10:51:00,
2013-08-13 05:56:00,67.9,65.2,29.98,North,5,0.0,1.0,91,0.00,,---,0.00,VWS V14.01,2013-08-13 10:56:00,
2013-08-13 06:00:00,68.8,65.8,29.98,North,5,0.0,2.0,90,0.00,,---,0.00,VWS V14.01,2013-08-13 11:00:00,
2013-08-13 06:01:00,67.9,65.2,29.99,North,5,0.0,0.0,91,0.00,,---,0.00,VWS V14.01,2013-08-13 11:01:00,
2013-08-13 06:06:00,68.1,65.4,29.99,North,5,0.0,2.0,91,0.00,,---,0.00,VWS V14.01,2013-08-13 11:06:00,
2013-08-13 06:11:00,68.1,65.4,29.99,North,5,1.0,2.0,91,0.00,,---,0.00,VWS V14.01,2013-08-13 11:11:00,
2013-08-13 06:16:00,68.1,65.4,29.99,North,5,1.0,3.0,91,0.00,,---,0.00,VWS V14.01,2013-08-13 11:16:00,
2013-08-13 06:21:00,68.1,65.4,29.99,North,5,1.0,3.0,91,0.00,,---,0.00,VWS V14.01,2013-08-13 11:21:00,
2013-08-13 06:26:00,68.1,65.4,29.99,North,5,2.0,3.0,91,0.00,,---,0.00,VWS V14.01,2013-08-13 11:26:00,
2013-08-13 06:30:00,67.9,65.2,29.98,North,5,0.0,0.0,91,0.00,,---,0.00,VWS V14.01,2013-08-13 11:30:00,
2013-08-13 06:31:00,68.1,65.4,30.00,NNE,12,1.0,2.0,91,0.00,,---,0.00,VWS V14.01,2013-08-13 11:31:00,
2013-08-13 06:36:00,68.1,65.4,30.00,NNE,12,0.0,3.0,91,0.00,,---,0.00,VWS V14.01,2013-08-13 11:36:00,
2013-08-13 06:41:00,68.1,65.4,30.00,NNE,12,3.0,4.0,91,0.00,,---,0.00,VWS V14.01,2013-08-13 11:41:00,
2013-08-13 06:46:00,67.9,65.2,30.00,NNE,29,1.0,5.0,91,0.00,,---,0.00,VWS V14.01,2013-08-13 11:46:00,
2013-08-13 06:51:00,67.9,65.2,30.00,NNE,20,0.0,5.0,91,0.00,,---,0.00,VWS V14.01,2013-08-13 11:51:00,
2013-08-13 06:56:00,67.8,65.1,30.00,NNE,24,1.0,6.0,91,0.00,,---,0.00,VWS V14.01,2013-08-13 11:56:00,
2013-08-13 07:00:00,67.9,65.2,29.99,North,5,0.0,2.0,91,0.00,,---,0.00,VWS V14.01,2013-08-13 12:00:00,
2013-08-13 07:01:00,67.8,65.1,30.01,NNE,24,3.0,4.0,91,0.00,,---,0.00,VWS V14.01,2013-08-13 12:01:00,
2013-08-13 07:06:00,67.6,64.6,30.01,NE,42,3.0,5.0,90,0.00,,---,0.00,VWS V14.01,2013-08-13 12:06:00,
2013-08-13 07:11:00,67.6,64.6,30.01,NE,42,3.0,5.0,90,0.00,,---,0.00,VWS V14.01,2013-08-13 12:11:00,
2013-08-13 07:16:00,67.6,64.6,30.01,NNE,17,1.0,5.0,90,0.00,,---,0.00,VWS V14.01,2013-08-13 12:16:00,
2013-08-13 07:21:00,67.6,64.6,30.01,North,349,1.0,5.0,90,0.00,,---,0.00,VWS V14.01,2013-08-13 12:21:00,
2013-08-13 07:26:00,67.4,64.1,30.01,NNE,28,0.0,5.0,89,0.00,,---,0.00,VWS V14.01,2013-08-13 12:26:00,
2013-08-13 07:30:00,68.1,65.4,30.00,NNE,12,2.0,3.0,91,0.00,,---,0.00,VWS V14.01,2013-08-13 12:30:00,
2013-08-13 07:31:00,67.4,64.1,30.01,NE,42,1.0,5.0,89,0.00,,---,0.00,VWS V14.01,2013-08-13 12:31:00,
2013-08-13 07:36:00,67.4,64.1,30.01,NE,40,2.0,7.0,89,0.00,,---,0.00,VWS V14.01,2013-08-13 12:36:00,
2013-08-13 07:41:00,67.4,64.1,30.01,NNE,13,5.0,7.0,89,0.00,,---,0.00,VWS V14.01,2013-08-13 12:41:00,
2013-08-13 07:46:00,67.4,64.1,30.01,NE,38,3.0,7.0,89,0.00,,---,0.00,VWS V14.01,2013-08-13 12:46:00,
2013-08-13 07:51:00,67.4,63.7,30.01,NNE,32,5.0,7.0,88,0.00,,---,0.00,VWS V14.01,2013-08-13 12:51:00,
2013-08-13 07:56:00,67.6,63.9,30.01,NE,49,2.0,7.0,88,0.00,,---,0.00,VWS V14.01,2013-08-13 12:56:00,
2013-08-13 08:00:00,67.8,65.1,30.01,NNE,24,4.0,6.0,91,0.00,,---,0.00,VWS V14.01,2013-08-13 13:00:00,
2013-08-13 08:01:00,67.6,63.9,30.01,NE,36,3.0,4.0,88,0.00,,---,0.00,VWS V14.01,2013-08-13 13:01:00,
2013-08-13 08:06:00,67.6,63.9,30.01,North,360,2.0,5.0,88,0.00,,---,0.00,VWS V14.01,2013-08-13 13:06:00,
2013-08-13 08:11:00,67.8,63.8,30.01,NNE,22,3.0,5.0,87,0.00,,---,0.00,VWS V14.01,2013-08-13 13:11:00,
2013-08-13 08:16:00,67.8,63.8,30.01,NNW,333,0.0,5.0,87,0.00,,---,0.00,VWS V14.01,2013-08-13 13:16:00,
2013-08-13 08:21:00,67.9,64.9,30.01,NE,49,1.0,6.0,90,0.00,,---,0.00,VWS V14.01,2013-08-13 13:21:00,
2013-08-13 08:26:00,67.9,63.9,30.01,NNE,30,3.0,6.0,87,0.00,,---,0.00,VWS V14.01,2013-08-13 13:26:00,
2013-08-13 08:30:00,67.4,64.1,30.01,NNE,17,3.0,5.0,89,0.00,,---,0.00,VWS V14.01,2013-08-13 13:30:00,
2013-08-13 08:31:00,68.1,64.1,30.02,NNE,31,2.0,2.0,87,0.00,,---,0.00,VWS V14.01,2013-08-13 13:31:00,
2013-08-13 08:36:00,68.3,64.3,30.02,East,92,1.0,4.0,87,0.00,,---,0.00,VWS V14.01,2013-08-13 13:36:00,
2013-08-13 08:41:00,68.4,64.4,30.02,NNE,26,3.0,4.0,87,0.00,,---,0.00,VWS V14.01,2013-08-13 13:41:00,
2013-08-13 08:46:00,68.8,64.4,30.04,NNE,32,0.0,5.0,86,0.00,,---,0.00,VWS V14.01,2013-08-13 13:46:00,
2013-08-13 08:51:00,69.1,64.7,30.04,NNE,15,2.0,5.0,86,0.00,,---,0.00,VWS V14.01,2013-08-13 13:51:00,
2013-08-13 08:56:00,69.4,65.0,30.04,NE,54,0.0,5.0,86,0.00,,---,0.00,VWS V14.01,2013-08-13 13:56:00,
2013-08-13 09:00:00,67.6,63.9,30.01,NE,36,2.0,7.0,88,0.00,,---,0.00,VWS V14.01,2013-08-13 14:00:00,
2013-08-13 09:01:00,69.8,65.1,30.04,NE,42,3.0,3.0,85,0.00,,---,0.00,VWS V14.01,2013-08-13 14:01:00,
2013-08-13 09:06:00,69.9,65.2,30.04,ENE,76,2.0,4.0,85,0.00,,---,0.00,VWS V14.01,2013-08-13 14:06:00,
2013-08-13 09:11:00,70.1,65.1,30.04,East,93,2.0,5.0,84,0.00,,---,0.00,VWS V14.01,2013-08-13 14:11:00,
2013-08-13 09:16:00,70.1,64.7,30.04,ESE,107,1.0,5.0,83,0.00,,---,0.00,VWS V14.01,2013-08-13 14:16:00,
2013-08-13 09:21:00,70.1,64.7,30.04,NNE,30,1.0,5.0,83,0.00,,---,0.00,VWS V14.01,2013-08-13 14:21:00,
2013-08-13 09:26:00,70.1,64.7,30.04,East,90,0.0,6.0,83,0.00,,---,0.00,VWS V14.01,2013-08-13 14:26:00,
2013-08-13 09:30:00,68.1,64.1,30.02,NE,34,2.0,6.0,87,0.00,,---,0.00,VWS V14.01,2013-08-13 14:30:00,
2013-08-13 09:31:00,70.1,64.7,30.04,NE,38,2.0,2.0,83,0.00,,---,0.00,VWS V14.01,2013-08-13 14:31:00,
2013-08-13 09:36:00,70.1,64.4,30.04,East,91,0.0,4.0,82,0.00,,---,0.00,VWS V14.01,2013-08-13 14:36:00,
2013-08-13 09:41:00,70.1,64.4,30.04,NNE,33,2.0,5.0,82,0.00,,---,0.00,VWS V14.01,2013-08-13 14:41:00,
2013-08-13 09:46:00,70.4,64.7,30.05,NE,34,1.0,5.0,82,0.00,,---,0.00,VWS V14.01,2013-08-13 14:46:00,
2013-08-13 09:51:00,70.6,64.5,30.05,NE,40,5.0,7.0,81,0.00,,---,0.00,VWS V14.01,2013-08-13 14:51:00,
2013-08-13 09:56:00,70.8,64.7,30.05,NE,43,2.0,7.0,81,0.00,,---,0.00,VWS V14.01,2013-08-13 14:56:00,
2013-08-13 10:00:00,69.8,65.1,30.04,NE,42,1.0,5.0,85,0.00,,---,0.00,VWS V14.01,2013-08-13 15:00:00,
2013-08-13 10:01:00,70.9,63.7,30.05,NE,36,2.0,2.0,78,0.00,,---,0.00,VWS V14.01,2013-08-13 15:01:00,
2013-08-13 10:06:00,70.9,64.4,30.05,NE,34,0.0,3.0,80,0.00,,---,0.00,VWS V14.01,2013-08-13 15:06:00,
2013-08-13 10:11:00,71.1,64.6,30.05,NE,38,1.0,6.0,80,0.00,,---,0.00,VWS V14.01,2013-08-13 15:11:00,
2013-08-13 10:16:00,71.5,64.7,30.05,NE,39,2.0,6.0,79,0.00,,---,0.00,VWS V14.01,2013-08-13 15:16:00,
2013-08-13 10:21:00,71.8,64.9,30.05,NNE,28,2.0,8.0,79,0.00,,---,0.00,VWS V14.01,2013-08-13 15:21:00,
2013-08-13 10:26:00,72.1,64.9,30.05,NE,51,2.0,8.0,78,0.00,,---,0.00,VWS V14.01,2013-08-13 15:26:00,
2013-08-13 10:30:00,70.1,64.7,30.04,NE,38,1.0,6.0,83,0.00,,---,0.00,VWS V14.01,2013-08-13 15:30:00,
2013-08-13 10:31:00,72.3,65.1,30.06,NE,53,2.0,2.0,78,0.00,,---,0.00,VWS V14.01,2013-08-13 15:31:00,
2013-08-13 10:36:00,72.1,64.9,30.06,NNE,27,2.0,5.0,78,0.00,,---,0.00,VWS V14.01,2013-08-13 15:36:00,
2013-08-13 10:41:00,72.3,65.1,30.06,NE,55,3.0,5.0,78,0.00,,---,0.00,VWS V14.01,2013-08-13 15:41:00,
2013-08-13 10:46:00,72.7,65.1,30.06,East,88,2.0,5.0,77,0.00,,---,0.00,VWS V14.01,2013-08-13 15:46:00,
2013-08-13 10:51:00,73.0,65.4,30.06,NE,34,2.0,5.0,77,0.00,,---,0.00,VWS V14.01,2013-08-13 15:51:00,
2013-08-13 10:56:00,73.5,65.9,30.06,ESE,103,2.0,6.0,77,0.00,,---,0.00,VWS V14.01,2013-08-13 15:56:00,
2013-08-13 11:00:00,70.9,63.7,30.05,NE,36,2.0,7.0,78,0.00,,---,0.00,VWS V14.01,2013-08-13 16:00:00,
2013-08-13 11:01:00,73.5,65.1,30.07,East,94,3.0,5.0,75,0.00,,---,0.00,VWS V14.01,2013-08-13 16:01:00,
2013-08-13 11:06:00,73.5,65.5,30.07,ESE,114,1.0,6.0,76,0.00,,---,0.00,VWS V14.01,2013-08-13 16:06:00,
2013-08-13 11:11:00,73.7,65.3,30.07,East,99,1.0,6.0,75,0.00,,---,0.00,VWS V14.01,2013-08-13 16:11:00,
2013-08-13 11:16:00,74.0,65.6,30.07,NE,46,0.0,6.0,75,0.00,,---,0.00,VWS V14.01,2013-08-13 16:16:00,
2013-08-13 11:21:00,74.6,65.8,30.07,ENE,67,4.0,6.0,74,0.00,,---,0.00,VWS V14.01,2013-08-13 16:21:00,
2013-08-13 11:26:00,74.9,66.1,30.07,NE,53,0.0,6.0,74,0.00,,---,0.00,VWS V14.01,2013-08-13 16:26:00,
2013-08-13 11:30:00,72.3,65.1,30.06,NE,53,0.0,8.0,78,0.00,,---,0.00,VWS V14.01,2013-08-13 16:30:00,
2013-08-13 11:31:00,75.3,66.1,30.07,East,91,2.0,2.0,73,0.00,,---,0.00,VWS V14.01,2013-08-13 16:31:00,
2013-08-13 11:36:00,75.4,66.2,30.07,North,5,2.0,6.0,73,0.00,,---,0.00,VWS V14.01,2013-08-13 16:36:00,
2013-08-13 11:41:00,75.6,66.3,30.07,East,83,5.0,8.0,73,0.00,,---,0.00,VWS V14.01,2013-08-13 16:41:00,
2013-08-13 11:46:00,75.6,65.9,30.07,NNE,26,3.0,8.0,72,0.00,,---,0.00,VWS V14.01,2013-08-13 16:46:00,
2013-08-13 11:51:00,75.8,65.7,30.07,ENE,74,3.0,8.0,71,0.00,,---,0.00,VWS V14.01,2013-08-13 16:51:00,
2013-08-13 11:56:00,75.8,65.7,30.07,ESE,109,5.0,8.0,71,0.00,,---,0.00,VWS V14.01,2013-08-13 16:56:00,
2013-08-13 12:00:00,73.5,65.1,30.07,East,94,3.0,9.0,75,0.00,,---,0.00,VWS V14.01,2013-08-13 17:00:00,
2013-08-13 12:01:00,75.8,65.3,30.07,NE,46,5.0,5.0,70,0.00,,---,0.00,VWS V14.01,2013-08-13 17:01:00,
2013-08-13 12:06:00,75.6,64.7,30.07,NE,40,1.0,5.0,69,0.00,,---,0.00,VWS V14.01,2013-08-13 17:06:00,
2013-08-13 12:12:00,75.4,64.1,30.07,East,92,2.0,6.0,68,0.00,,---,0.00,VWS V14.01,2013-08-13 17:12:00,
2013-08-13 12:17:00,75.4,64.1,30.07,East,88,6.0,8.0,68,0.00,,---,0.00,VWS V14.01,2013-08-13 17:17:00,
2013-08-13 12:22:00,75.6,64.3,30.07,East,82,2.0,8.0,68,0.00,,---,0.00,VWS V14.01,2013-08-13 17:22:00,
2013-08-13 12:27:00,76.0,64.7,30.07,East,91,5.0,8.0,68,0.00,,---,0.00,VWS V14.01,2013-08-13 17:27:00,
2013-08-13 12:30:00,75.3,66.1,30.07,East,91,2.0,8.0,73,0.00,,---,0.00,VWS V14.01,2013-08-13 17:30:00,
2013-08-13 12:32:00,76.1,64.4,30.07,NNE,30,2.0,6.0,67,0.00,,---,0.00,VWS V14.01,2013-08-13 17:32:00,
2013-08-13 12:37:00,76.1,64.4,30.07,East,79,2.0,6.0,67,0.00,,---,0.00,VWS V14.01,2013-08-13 17:37:00,
2013-08-13 12:42:00,76.3,64.1,30.07,East,86,6.0,6.0,66,0.00,,---,0.00,VWS V14.01,2013-08-13 17:42:00,
2013-08-13 12:47:00,76.5,64.3,30.06,East,98,3.0,8.0,66,0.00,,---,0.00,VWS V14.01,2013-08-13 17:47:00,
2013-08-13 12:52:00,76.7,64.1,30.06,East,93,5.0,8.0,65,0.00,,---,0.00,VWS V14.01,2013-08-13 17:52:00,
2013-08-13 12:57:00,76.8,64.2,30.06,East,101,1.0,8.0,65,0.00,,---,0.00,VWS V14.01,2013-08-13 17:57:00,
2013-08-13 13:00:00,75.8,65.3,30.07,NE,55,5.0,9.0,70,0.00,,---,0.00,VWS V14.01,2013-08-13 18:00:00,
2013-08-13 13:02:00,77.0,63.9,30.06,NNE,29,4.0,7.0,64,0.00,,---,0.00,VWS V14.01,2013-08-13 18:02:00,
2013-08-13 13:07:00,76.8,63.7,30.06,East,97,2.0,7.0,64,0.00,,---,0.00,VWS V14.01,2013-08-13 18:07:00,
2013-08-13 13:12:00,76.8,63.7,30.06,NNE,22,1.0,7.0,64,0.00,,---,0.00,VWS V14.01,2013-08-13 18:12:00,
2013-08-13 13:17:00,77.0,63.9,30.05,East,94,3.0,9.0,64,0.00,,---,0.00,VWS V14.01,2013-08-13 18:17:00,
2013-08-13 13:22:00,77.0,63.5,30.05,NE,35,4.0,9.0,63,0.00,,---,0.00,VWS V14.01,2013-08-13 18:22:00,
2013-08-13 13:27:00,77.2,63.6,30.05,East,90,2.0,9.0,63,0.00,,---,0.00,VWS V14.01,2013-08-13 18:27:00,
2013-08-13 13:30:00,76.1,64.4,30.07,East,80,3.0,8.0,67,0.00,,---,0.00,VWS V14.01,2013-08-13 18:30:00,
2013-08-13 13:32:00,77.4,63.8,30.05,NNE,16,2.0,4.0,63,0.00,,---,0.00,VWS V14.01,2013-08-13 18:32:00,
2013-08-13 13:37:00,77.4,63.8,30.05,ENE,57,3.0,7.0,63,0.00,,---,0.00,VWS V14.01,2013-08-13 18:37:00,
2013-08-13 13:42:00,77.6,63.6,30.05,NE,48,2.0,7.0,62,0.00,,---,0.00,VWS V14.01,2013-08-13 18:42:00,
2013-08-13 13:47:00,77.7,63.7,30.04,SE,136,3.0,8.0,62,0.00,,---,0.00,VWS V14.01,2013-08-13 18:47:00,
2013-08-13 13:52:00,77.9,63.4,30.04,ENE,65,1.0,8.0,61,0.00,,---,0.00,VWS V14.01,2013-08-13 18:52:00,
2013-08-13 13:57:00,78.1,63.6,30.04,ENE,65,2.0,8.0,61,0.00,,---,0.00,VWS V14.01,2013-08-13 18:57:00,
2013-08-13 14:00:00,77.0,64.8,30.06,ENE,67,7.0,8.0,66,0.00,,---,0.00,VWS V14.01,2013-08-13 19:00:00,
2013-08-13 14:02:00,78.5,63.5,30.04,NE,37,3.0,5.0,60,0.00,,---,0.00,VWS V14.01,2013-08-13 19:02:00,
2013-08-13 14:07:00,78.5,63.0,30.04,East,93,5.0,6.0,59,0.00,,---,0.00,VWS V14.01,2013-08-13 19:07:00,
2013-08-13 14:12:00,78.3,62.8,30.04,North,5,3.0,6.0,59,0.00,,---,0.00,VWS V14.01,2013-08-13 19:12:00,
2013-08-13 14:17:00,78.1,62.1,30.04,NNE,27,6.0,7.0,58,0.00,,---,0.00,VWS V14.01,2013-08-13 19:17:00,
2013-08-13 14:22:00,77.9,62.0,30.04,NE,41,4.0,8.0,58,0.00,,---,0.00,VWS V14.01,2013-08-13 19:22:00,
2013-08-13 14:27:00,78.1,62.1,30.04,NE,37,3.0,8.0,58,0.00,,---,0.00,VWS V14.01,2013-08-13 19:27:00,
2013-08-13 14:30:00,77.4,63.8,30.05,ENE,63,2.0,9.0,63,0.00,,---,0.00,VWS V14.01,2013-08-13 19:30:00,
2013-08-13 14:32:00,78.3,62.3,30.04,East,92,2.0,6.0,58,0.00,,---,0.00,VWS V14.01,2013-08-13 19:32:00,
2013-08-13 14:37:00,78.3,61.8,30.04,NNE,28,4.0,7.0,57,0.00,,---,0.00,VWS V14.01,2013-08-13 19:37:00,
2013-08-13 14:42:00,78.5,62.0,30.04,NNW,342,3.0,7.0,57,0.00,,---,0.00,VWS V14.01,2013-08-13 19:42:00,
2013-08-13 14:47:00,78.5,62.0,30.04,NNE,22,2.0,7.0,57,0.00,,---,0.00,VWS V14.01,2013-08-13 19:47:00,
2013-08-13 14:52:00,78.5,62.0,30.04,NNE,31,0.0,7.0,57,0.00,,---,0.00,VWS V14.01,2013-08-13 19:52:00,
2013-08-13 14:57:00,78.6,62.1,30.04,NE,53,5.0,7.0,57,0.00,,---,0.00,VWS V14.01,2013-08-13 19:57:00,
2013-08-13 15:00:00,78.5,63.5,30.04,NE,42,3.0,9.0,60,0.00,,---,0.00,VWS V14.01,2013-08-13 20:00:00,
2013-08-13 15:02:00,78.6,62.1,30.03,NNW,342,4.0,4.0,57,0.00,,---,0.00,VWS V14.01,2013-08-13 20:02:00,
2013-08-13 15:07:00,78.6,61.6,30.03,NNE,33,2.0,7.0,56,0.00,,---,0.00,VWS V14.01,2013-08-13 20:07:00,
2013-08-13 15:12:00,78.6,62.1,30.03,North,5,5.0,10.0,57,0.00,,---,0.00,VWS V14.01,2013-08-13 20:12:00,
2013-08-13 15:17:00,78.6,61.6,30.03,NNW,339,3.0,10.0,56,0.00,,---,0.00,VWS V14.01,2013-08-13 20:17:00,
2013-08-13 15:22:00,78.6,61.6,30.03,NE,51,3.0,10.0,56,0.00,,---,0.00,VWS V14.01,2013-08-13 20:22:00,
2013-08-13 15:27:00,78.6,61.1,30.03,NE,56,3.0,10.0,55,0.00,,---,0.00,VWS V14.01,2013-08-13 20:27:00,
2013-08-13 15:30:00,78.3,62.3,30.04,ESE,104,4.0,8.0,58,0.00,,---,0.00,VWS V14.01,2013-08-13 20:30:00,
2013-08-13 15:32:00,78.6,61.1,30.03,North,360,3.0,4.0,55,0.00,,---,0.00,VWS V14.01,2013-08-13 20:32:00,
2013-08-13 15:37:00,78.6,61.1,30.03,NE,42,1.0,8.0,55,0.00,,---,0.00,VWS V14.01,2013-08-13 20:37:00,
2013-08-13 15:42:00,78.6,60.6,30.03,North,9,3.0,8.0,54,0.00,,---,0.00,VWS V14.01,2013-08-13 20:42:00,
2013-08-13 15:47:00,78.6,61.1,30.02,NE,37,2.0,9.0,55,0.00,,---,0.00,VWS V14.01,2013-08-13 20:47:00,
2013-08-13 15:52:00,78.6,60.6,30.02,ENE,59,2.0,9.0,54,0.00,,---,0.00,VWS V14.01,2013-08-13 20:52:00,
2013-08-13 15:57:00,78.6,60.6,30.02,North,5,4.0,9.0,54,0.00,,---,0.00,VWS V14.01,2013-08-13 20:57:00,
2013-08-13 16:00:00,78.6,62.1,30.03,North,5,0.0,10.0,57,0.00,,---,0.00,VWS V14.01,2013-08-13 21:00:00,
2013-08-13 16:02:00,78.5,60.5,30.02,North,9,2.0,10.0,54,0.00,,---,0.00,VWS V14.01,2013-08-13 21:02:00,
2013-08-13 16:07:00,78.6,61.1,30.02,North,9,2.0,10.0,55,0.00,,---,0.00,VWS V14.01,2013-08-13 21:07:00,
2013-08-13 16:12:00,78.6,60.6,30.02,East,88,6.0,10.0,54,0.00,,---,0.00,VWS V14.01,2013-08-13 21:12:00,
2013-08-13 16:17:00,78.3,60.3,30.02,NNE,32,2.0,10.0,54,0.00,,---,0.00,VWS V14.01,2013-08-13 21:17:00,
2013-08-13 16:22:00,78.1,60.6,30.02,NE,46,4.0,10.0,55,0.00,,---,0.00,VWS V14.01,2013-08-13 21:22:00,
2013-08-13 16:27:00,77.9,60.5,30.02,East,86,3.0,10.0,55,0.00,,---,0.00,VWS V14.01,2013-08-13 21:27:00,
2013-08-13 16:30:00,78.6,61.1,30.03,NNW,346,4.0,10.0,55,0.00,,---,0.00,VWS V14.01,2013-08-13 21:30:00,
2013-08-13 16:32:00,77.7,60.3,30.02,ENE,78,1.0,7.0,55,0.00,,---,0.00,VWS V14.01,2013-08-13 21:32:00,
2013-08-13 16:37:00,77.7,60.3,30.02,East,90,5.0,7.0,55,0.00,,---,0.00,VWS V14.01,2013-08-13 21:37:00,
2013-08-13 16:42:00,77.7,60.3,30.02,NE,39,2.0,7.0,55,0.00,,---,0.00,VWS V14.01,2013-08-13 21:42:00,
2013-08-13 16:47:00,77.9,60.5,30.02,East,101,3.0,7.0,55,0.00,,---,0.00,VWS V14.01,2013-08-13 21:47:00,
2013-08-13 16:52:00,77.9,60.5,30.02,East,96,2.0,7.0,55,0.00,,---,0.00,VWS V14.01,2013-08-13 21:52:00,
2013-08-13 16:57:00,78.1,61.1,30.02,East,88,3.0,7.0,56,0.00,,---,0.00,VWS V14.01,2013-08-13 21:57:00,
2013-08-13 17:00:00,78.5,60.5,30.02,North,11,2.0,9.0,54,0.00,,---,0.00,VWS V14.01,2013-08-13 22:00:00,
2013-08-13 17:02:00,78.1,60.6,30.02,NNE,24,1.0,7.0,55,0.00,,---,0.00,VWS V14.01,2013-08-13 22:02:00,
2013-08-13 17:07:00,77.7,60.3,30.02,NE,40,2.0,7.0,55,0.00,,---,0.00,VWS V14.01,2013-08-13 22:07:00,
2013-08-13 17:12:00,77.4,60.5,30.02,NE,50,1.0,7.0,56,0.00,,---,0.00,VWS V14.01,2013-08-13 22:12:00,
2013-08-13 17:17:00,77.4,60.5,30.01,NNE,30,2.0,7.0,56,0.00,,---,0.00,VWS V14.01,2013-08-13 22:17:00,
2013-08-13 17:22:00,77.2,60.3,30.01,NNE,21,0.0,7.0,56,0.00,,---,0.00,VWS V14.01,2013-08-13 22:22:00,
2013-08-13 17:27:00,77.4,60.5,30.01,NNE,17,2.0,7.0,56,0.00,,---,0.00,VWS V14.01,2013-08-13 22:27:00,
2013-08-13 17:30:00,77.7,59.8,30.02,NNE,28,1.0,10.0,54,0.00,,---,0.00,VWS V14.01,2013-08-13 22:30:00,
2013-08-13 17:32:00,77.6,60.7,30.01,ENE,66,0.0,4.0,56,0.00,,---,0.00,VWS V14.01,2013-08-13 22:32:00,
2013-08-13 17:37:00,77.4,60.5,30.01,East,85,5.0,6.0,56,0.00,,---,0.00,VWS V14.01,2013-08-13 22:37:00,
2013-08-13 17:42:00,77.0,60.1,30.01,NNW,334,2.0,9.0,56,0.00,,---,0.00,VWS V14.01,2013-08-13 22:42:00,
2013-08-13 17:47:00,76.8,59.4,30.01,NNE,22,3.0,9.0,55,0.00,,---,0.00,VWS V14.01,2013-08-13 22:47:00,
2013-08-13 17:52:00,76.8,59.9,30.01,East,81,5.0,9.0,56,0.00,,---,0.00,VWS V14.01,2013-08-13 22:52:00,
2013-08-13 17:57:00,76.8,59.4,30.01,East,83,1.0,9.0,55,0.00,,---,0.00,VWS V14.01,2013-08-13 22:57:00,
2013-08-13 18:00:00,78.1,60.6,30.02,NNE,19,4.0,7.0,55,0.00,,---,0.00,VWS V14.01,2013-08-13 23:00:00,
2013-08-13 18:02:00,76.7,59.3,30.01,NE,52,2.0,4.0,55,0.00,,---,0.00,VWS V14.01,2013-08-13 23:02:00,
2013-08-13 18:07:00,76.5,59.2,30.01,East,88,1.0,5.0,55,0.00,,---,0.00,VWS V14.01,2013-08-13 23:07:00,
2013-08-13 18:12:00,76.5,59.2,30.01,East,92,5.0,7.0,55,0.00,,---,0.00,VWS V14.01,2013-08-13 23:12:00,
2013-08-13 18:17:00,76.3,59.0,30.01,NE,40,1.0,7.0,55,0.00,,---,0.00,VWS V14.01,2013-08-13 23:17:00,
2013-08-13 18:22:00,76.1,58.8,30.01,ENE,76,0.0,7.0,55,0.00,,---,0.00,VWS V14.01,2013-08-13 23:22:00,
2013-08-13 18:27:00,76.0,59.2,30.01,NE,40,0.0,7.0,56,0.00,,---,0.00,VWS V14.01,2013-08-13 23:27:00,
2013-08-13 18:30:00,77.4,60.5,30.01,NNE,24,2.0,7.0,56,0.00,,---,0.00,VWS V14.01,2013-08-13 23:30:00,
2013-08-13 18:32:00,76.0,59.2,30.01,NE,40,1.0,2.0,56,0.00,,---,0.00,VWS V14.01,2013-08-13 23:32:00,
2013-08-13 18:37:00,75.8,59.0,30.01,NE,43,1.0,2.0,56,0.00,,---,0.00,VWS V14.01,2013-08-13 23:37:00,
2013-08-13 18:42:00,75.6,58.8,30.01,ESE,110,3.0,5.0,56,0.00,,---,0.00,VWS V14.01,2013-08-13 23:42:00,
2013-08-13 18:47:00,75.4,58.6,30.01,NE,40,1.0,5.0,56,0.00,,---,0.00,VWS V14.01,2013-08-13 23:47:00,
2013-08-13 18:52:00,75.4,59.1,30.01,NE,43,0.0,5.0,57,0.00,,---,0.00,VWS V14.01,2013-08-13 23:52:00,
2013-08-13 18:57:00,75.3,59.0,30.01,NE,39,1.0,5.0,57,0.00,,---,0.00,VWS V14.01,2013-08-13 23:57:00,
2013-08-13 19:00:00,76.7,59.3,30.01,NE,56,4.0,9.0,55,0.00,,---,0.00,VWS V14.01,2013-08-14 00:00:00,
2013-08-13 19:02:00,74.9,58.2,30.01,ENE,75,1.0,3.0,56,0.00,,---,0.00,VWS V14.01,2013-08-14 00:02:00,
2013-08-13 19:07:00,74.9,58.2,30.01,ENE,75,0.0,3.0,56,0.00,,---,0.00,VWS V14.01,2013-08-14 00:07:00,
2013-08-13 19:12:00,74.7,58.5,30.01,ENE,75,0.0,3.0,57,0.00,,---,0.00,VWS V14.01,2013-08-14 00:12:00,
2013-08-13 19:17:00,74.6,58.4,30.01,ENE,75,0.0,3.0,57,0.00,,---,0.00,VWS V14.01,2013-08-14 00:17:00,
2013-08-13 19:22:00,74.6,58.4,30.01,ENE,75,0.0,3.0,57,0.00,,---,0.00,VWS V14.01,2013-08-14 00:22:00,
2013-08-13 19:27:00,74.2,58.5,30.01,ENE,75,0.0,3.0,58,0.00,,---,0.00,VWS V14.01,2013-08-14 00:27:00,
2013-08-13 19:30:00,76.0,59.2,30.01,NE,40,1.0,7.0,56,0.00,,---,0.00,VWS V14.01,2013-08-14 00:30:00,
2013-08-13 19:32:00,74.0,57.8,30.01,ENE,75,0.0,0.0,57,0.00,,---,0.00,VWS V14.01,2013-08-14 00:32:00,
2013-08-13 19:37:00,73.9,57.7,30.01,ENE,74,0.0,2.0,57,0.00,,---,0.00,VWS V14.01,2013-08-14 00:37:00,
2013-08-13 19:42:00,73.9,58.2,30.01,ENE,74,0.0,2.0,58,0.00,,---,0.00,VWS V14.01,2013-08-14 00:42:00,
2013-08-13 19:47:00,73.7,58.0,30.01,ENE,74,0.0,2.0,58,0.00,,---,0.00,VWS V14.01,2013-08-14 00:47:00,
2013-08-13 19:52:00,73.7,58.0,30.01,ENE,74,0.0,2.0,58,0.00,,---,0.00,VWS V14.01,2013-08-14 00:52:00,
2013-08-13 19:57:00,73.5,58.3,30.01,ENE,74,0.0,2.0,59,0.00,,---,0.00,VWS V14.01,2013-08-14 00:57:00,
2013-08-13 20:00:00,75.1,58.8,30.01,East,80,2.0,5.0,57,0.00,,---,0.00,VWS V14.01,2013-08-14 01:00:00,
2013-08-13 20:02:00,73.2,58.0,30.01,ENE,74,0.0,0.0,59,0.00,,---,0.00,VWS V14.01,2013-08-14 01:02:00,
2013-08-13 20:07:00,72.8,58.1,30.01,ENE,74,0.0,0.0,60,0.00,,---,0.00,VWS V14.01,2013-08-14 01:07:00,
2013-08-13 20:12:00,72.5,57.8,30.01,ENE,74,0.0,0.0,60,0.00,,---,0.00,VWS V14.01,2013-08-14 01:12:00,
2013-08-13 20:17:00,72.0,57.8,30.01,ENE,73,0.0,0.0,61,0.00,,---,0.00,VWS V14.01,2013-08-14 01:17:00,
2013-08-13 20:22:00,71.6,57.9,30.01,ENE,74,0.0,0.0,62,0.00,,---,0.00,VWS V14.01,2013-08-14 01:22:00,
2013-08-13 20:27:00,71.3,57.6,30.01,ENE,74,0.0,0.0,62,0.00,,---,0.00,VWS V14.01,2013-08-14 01:27:00,
2013-08-13 20:30:00,74.0,57.8,30.01,ENE,75,0.0,3.0,57,0.00,,---,0.00,VWS V14.01,2013-08-14 01:30:00,
2013-08-13 20:32:00,70.9,57.7,30.01,ENE,74,0.0,0.0,63,0.00,,---,0.00,VWS V14.01,2013-08-14 01:32:00,
2013-08-13 20:37:00,70.6,57.8,30.01,ENE,74,0.0,0.0,64,0.00,,---,0.00,VWS V14.01,2013-08-14 01:37:00,
2013-08-13 20:42:00,70.3,57.6,30.01,ENE,74,0.0,0.0,64,0.00,,---,0.00,VWS V14.01,2013-08-14 01:42:00,
2013-08-13 20:47:00,69.8,57.5,30.02,ENE,74,0.0,0.0,65,0.00,,---,0.00,VWS V14.01,2013-08-14 01:47:00,
2013-08-13 20:52:00,69.4,57.1,30.02,ENE,74,0.0,0.0,65,0.00,,---,0.00,VWS V14.01,2013-08-14 01:52:00,
2013-08-13 20:57:00,69.3,57.5,30.02,ENE,74,0.0,0.0,66,0.00,,---,0.00,VWS V14.01,2013-08-14 01:57:00,
2013-08-13 21:00:00,73.2,58.0,30.01,ENE,74,0.0,2.0,59,0.00,,---,0.00,VWS V14.01,2013-08-14 02:00:00,
2013-08-13 21:02:00,68.9,57.5,30.03,ENE,74,0.0,0.0,67,0.00,,---,0.00,VWS V14.01,2013-08-14 02:02:00,
2013-08-13 21:07:00,68.8,57.4,30.03,ENE,74,0.0,0.0,67,0.00,,---,0.00,VWS V14.01,2013-08-14 02:07:00,
2013-08-13 21:12:00,68.6,57.6,30.03,ENE,74,0.0,0.0,68,0.00,,---,0.00,VWS V14.01,2013-08-14 02:12:00,
2013-08-13 21:17:00,68.6,57.6,30.03,ENE,74,0.0,0.0,68,0.00,,---,0.00,VWS V14.01,2013-08-14 02:17:00,
2013-08-13 21:22:00,68.6,58.0,30.03,ENE,74,0.0,0.0,69,0.00,,---,0.00,VWS V14.01,2013-08-14 02:22:00,
2013-08-13 21:27:00,68.4,57.8,30.03,ENE,74,0.0,0.0,69,0.00,,---,0.00,VWS V14.01,2013-08-14 02:27:00,
2013-08-13 21:30:00,71.1,57.9,30.01,ENE,74,0.0,0.0,63,0.00,,---,0.00,VWS V14.01,2013-08-14 02:30:00,
2013-08-13 21:32:00,68.3,57.8,30.04,ENE,74,0.0,0.0,69,0.00,,---,0.00,VWS V14.01,2013-08-14 02:32:00,
2013-08-13 21:37:00,68.1,58.0,30.04,ENE,74,0.0,0.0,70,0.00,,---,0.00,VWS V14.01,2013-08-14 02:37:00,
2013-08-13 21:42:00,67.8,57.7,30.04,ENE,74,0.0,0.0,70,0.00,,---,0.00,VWS V14.01,2013-08-14 02:42:00,
2013-08-13 21:47:00,67.4,57.7,30.04,ENE,74,0.0,0.0,71,0.00,,---,0.00,VWS V14.01,2013-08-14 02:47:00,
2013-08-13 21:52:00,67.3,57.6,30.04,ENE,74,0.0,0.0,71,0.00,,---,0.00,VWS V14.01,2013-08-14 02:52:00,
2013-08-13 21:57:00,67.1,57.8,30.04,ENE,74,0.0,0.0,72,0.00,,---,0.00,VWS V14.01,2013-08-14 02:57:00,
2013-08-13 22:00:00,68.9,57.1,30.03,ENE,74,0.0,0.0,66,0.00,,---,0.00,VWS V14.01,2013-08-14 03:00:00,
2013-08-13 22:02:00,66.9,57.6,30.05,ENE,74,0.0,0.0,72,0.00,,---,0.00,VWS V14.01,2013-08-14 03:02:00,
2013-08-13 22:07:00,66.8,57.9,30.05,ENE,74,0.0,0.0,73,0.00,,---,0.00,VWS V14.01,2013-08-14 03:07:00,
2013-08-13 22:12:00,66.6,57.7,30.05,ENE,74,0.0,0.0,73,0.00,,---,0.00,VWS V14.01,2013-08-14 03:12:00,
2013-08-13 22:17:00,66.6,58.1,30.06,ENE,74,0.0,0.0,74,0.00,,---,0.00,VWS V14.01,2013-08-14 03:17:00,
2013-08-13 22:22:00,66.4,57.9,30.06,ENE,74,0.0,0.0,74,0.00,,---,0.00,VWS V14.01,2013-08-14 03:22:00,
2013-08-13 22:27:00,66.3,57.8,30.06,ENE,74,0.0,0.0,74,0.00,,---,0.00,VWS V14.01,2013-08-14 03:27:00,
2013-08-13 22:30:00,68.3,57.8,30.04,ENE,74,0.0,0.0,69,0.00,,---,0.00,VWS V14.01,2013-08-14 03:30:00,
2013-08-13 22:32:00,66.3,58.2,30.06,ENE,74,0.0,0.0,75,0.00,,---,0.00,VWS V14.01,2013-08-14 03:32:00,
2013-08-13 22:37:00,66.3,58.5,30.06,ENE,74,0.0,0.0,76,0.00,,---,0.00,VWS V14.01,2013-08-14 03:37:00,
2013-08-13 22:42:00,66.3,58.5,30.06,ENE,74,0.0,0.0,76,0.00,,---,0.00,VWS V14.01,2013-08-14 03:42:00,
2013-08-13 22:47:00,66.1,58.3,30.06,ENE,74,0.0,0.0,76,0.00,,---,0.00,VWS V14.01,2013-08-14 03:47:00,
2013-08-13 22:52:00,66.3,58.9,30.06,ENE,74,0.0,0.0,77,0.00,,---,0.00,VWS V14.01,2013-08-14 03:52:00,
2013-08-13 22:57:00,66.3,59.2,30.06,ENE,74,0.0,0.0,78,0.00,,---,0.00,VWS V14.01,2013-08-14 03:57:00,
2013-08-13 23:00:00,66.9,57.6,30.05,ENE,74,0.0,0.0,72,0.00,,---,0.00,VWS V14.01,2013-08-14 04:00:00,
2013-08-13 23:01:00,66.3,59.2,30.06,ENE,74,0.0,0.0,78,0.00,,---,0.00,VWS V14.01,2013-08-14 04:01:00,
2013-08-13 23:06:00,66.1,59.0,30.06,ENE,74,0.0,0.0,78,0.00,,---,0.00,VWS V14.01,2013-08-14 04:06:00,
2013-08-13 23:11:00,66.0,59.0,30.06,ENE,74,0.0,0.0,78,0.00,,---,0.00,VWS V14.01,2013-08-14 04:11:00,
2013-08-13 23:16:00,66.0,59.3,30.06,ENE,74,0.0,0.0,79,0.00,,---,0.00,VWS V14.01,2013-08-14 04:16:00,
2013-08-13 23:21:00,65.6,58.9,30.06,ENE,74,0.0,0.0,79,0.00,,---,0.00,VWS V14.01,2013-08-14 04:21:00,
2013-08-13 23:26:00,65.5,58.8,30.06,ENE,74,0.0,0.0,79,0.00,,---,0.00,VWS V14.01,2013-08-14 04:26:00,
2013-08-13 23:30:00,66.3,58.2,30.06,ENE,74,0.0,0.0,75,0.00,,---,0.00,VWS V14.01,2013-08-14 04:30:00,
2013-08-13 23:31:00,65.3,59.0,30.06,ENE,74,0.0,0.0,80,0.00,,---,0.00,VWS V14.01,2013-08-14 04:31:00,
2013-08-13 23:36:00,65.2,58.9,30.06,ENE,74,0.0,0.0,80,0.00,,---,0.00,VWS V14.01,2013-08-14 04:36:00,
2013-08-13 23:41:00,65.0,58.7,30.06,ENE,74,0.0,0.0,80,0.00,,---,0.00,VWS V14.01,2013-08-14 04:41:00,
2013-08-13 23:46:00,64.8,58.5,30.07,ENE,74,0.0,0.0,80,0.00,,---,0.00,VWS V14.01,2013-08-14 04:46:00,
2013-08-13 23:51:00,64.7,58.7,30.07,ENE,74,0.0,0.0,81,0.00,,---,0.00,VWS V14.01,2013-08-14 04:51:00,
2013-08-13 23:56:00,64.5,58.5,30.07,ENE,74,0.0,0.0,81,0.00,,---,0.00,VWS V14.01,2013-08-14 04:56:00,